[Iaude] MPEC M63: 2022 MP1 [a=1.21,e=0.27,i=9.3,H=25.3]

mpec at marsden.cfa.harvard.edu mpec at marsden.cfa.harvard.edu
Fri Jun 24 09:03:34 EDT 2022


M.P.E.C. 2022-M63                                 Issued 2022 June 24, 13:02 UT

     The Minor Planet Electronic Circulars contain information on unusual
         minor planets and routine data on comets.  They are published
    on behalf of Division F of the International Astronomical Union by the
          Minor Planet Center, Smithsonian Astrophysical Observatory,
                          Cambridge, MA 02138, U.S.A.

             Prepared using the Tamkin Foundation Computer Network

                              MPC at CFA.HARVARD.EDU
            URL https://www.minorplanetcenter.net/    ISSN 1523-6714

                                    2022 MP1                                    


Observations:
     K22M01P* C2022 06 23.33533917 19 44.436+36 13 45.08         19.42GVEM063G96
     K22M01P  C2022 06 23.34667517 19 51.013+36 06 19.55               VEM063G96
     K22M01P  C2022 06 23.35233817 19 54.271+36 02 36.96               VEM063G96
     K22M01P mC2022 06 23.42562017 20 38.076+35 14 06.68         19.13GVEM063I52
     K22M01P mC2022 06 23.42578517 20 38.177+35 13 59.95         19.05GVEM063I52
     K22M01P mC2022 06 23.42595017 20 38.310+35 13 53.15         19.38GVEM063I52
     K22M01P mC2022 06 23.42611517 20 38.386+35 13 46.99         19.15GVEM063I52
     K22M01P KC2022 06 23.44030717 20 47.260+35 04 19.92         18.67GVEM063V06
     K22M01P KC2022 06 23.44071117 20 47.447+35 04 03.94         19.30GVEM063V06
     K22M01P KC2022 06 23.44111217 20 47.677+35 03 47.88         19.10GVEM063V06
     K22M01P KC2022 06 23.44151617 20 47.944+35 03 31.72         19.32GVEM063V06
     K22M01P KC2022 06 23.87716017 26 03.54 +30 18 35.1                VEM063104
     K22M01P KC2022 06 23.88273417 26 06.45 +30 14 57.4          19.2 GVEM063104
     K22M01P KC2022 06 23.88607817 26 08.13 +30 12 47.5                VEM063104
     K22M01P KC2022 06 23.88908 17 26 06.85 +30 10 25.1          18.9 GXEM063G02
     K22M01P KC2022 06 23.89217217 26 09.83 +30 08 13.6          19.4 GVEM063G34
     K22M01P KC2022 06 23.89464 17 26 09.76 +30 06 46.4                XEM063G02
     K22M01P KC2022 06 23.89485117 26 11.22 +30 06 28.3          19.2 GVEM063G34
     K22M01P KC2022 06 23.90045 17 26 12.71 +30 03 00.1                XEM063G02
     K22M01P KC2022 06 23.95657817 26 42.90 +29 26 37.9          19.0 GVEM063L01
     K22M01P IC2022 06 23.95876217 26 44.03 +29 25 12.2          19.4 GVEM063L01
     K22M01P KC2022 06 23.95986217 26 44.60 +29 24 28.7          19.4 GVEM063L01
     K22M01P IC2022 06 23.96095817 26 45.14 +29 23 45.3          19.3 GVEM063L01
     K22M01P KC2022 06 23.96314417 26 46.22 +29 22 19.3          19.6 GVEM063L01
     K22M01P KC2022 06 23.96721417 26 52.726+29 19 06.31               VEM063Z80
     K22M01P KC2022 06 23.98203017 27 00.310+29 09 25.63         20.2 GVEM063Z80
     K22M01P KC2022 06 24.18142917 29 04.92 +27 00 21.0          19.4 VuEM063H21
     K22M01P KC2022 06 24.18213417 29 05.24 +26 59 53.7          19.3 VuEM063H21
     K22M01P KC2022 06 24.18284017 29 05.58 +26 59 26.1          19.5 VuEM063H21
     K22M01P KC2022 06 24.18425717 29 06.22 +26 58 31.1          19.3 VuEM063H21

Observer details:
104 San Marcello Pistoiese.  Observers P. Bacci, M. Maestripieri.  Measurers
    P. Bacci, L. Tesi, G. Fagioli.  0.60-m F4 Reflector + CCD.
G02 KYSUCE Observatory, Kysucke Nove Mesto.  Observer M. Urbanik.  0.40-m
    f/5.5 Corrected Dall-Kirkham + CCD.
G34 Oberfrauendorf.  Observer T. Felber.  0.35-m f/6.3 Schmidt-Cassegrain +
    CCD.
G96 Mt. Lemmon Survey.  Observer D. Rankin.  Measurers E. J. Christensen, D.
    Fay, J. B. Fazekas, D. C. Fuls, A. R. Gibbs, A. D. Grauer, H. Groeller, J.
    K. Hogan, R. A. Kowalski, S. M. Larson, G. J. Leonard, D. Rankin, R. L.
    Seaman, A. Serrano, F. C. Shelly, K. W. Wierzchos.  1.5-m reflector + 10K
    CCD.
H21 Astronomical Research Observatory, Westfield.  Observer R. Holmes.
    Measurers T. Linder, R. Holmes, L. Horn.  0.76-m f/3.0 astrograph + CCD.
I52 Steward Observatory, Mt. Lemmon Station.  Observer R. A. Kowalski.
    Measurers E. J. Christensen, D. Fay, J. B. Fazekas, D. C. Fuls, A. R.
    Gibbs, A. D. Grauer, H. Groeller, J. K. Hogan, R. A. Kowalski, S. M.
    Larson, G. J. Leonard, D. Rankin, R. L. Seaman, A. Serrano, F. C. Shelly,
    K. W. Wierzchos.  1.0-m prime focus + CCD.
L01 Visnjan Observatory, Tican.  Observer K. Korlevic.  1.0-m f/2.9 reflector
    + CCD.
V06 Catalina Sky Survey-Kuiper.  Observer R. A. Kowalski.  Measurers E. J.
    Christensen, D. Fay, J. B. Fazekas, D. C. Fuls, A. R. Gibbs, A. D. Grauer,
    H. Groeller, J. K. Hogan, R. A. Kowalski, S. M. Larson, G. J. Leonard, D.
    Rankin, R. L. Seaman, A. Serrano, F. C. Shelly, K. W. Wierzchos.  1.55-m
    reflector + 1K CCD.
Z80 Northolt Branch Observatory.  Observer G. Wells.  Measurers G. Wells, D.
    Bamberger.  0.25-m f/8.0 Ritchey-Chretien + CCD.

Orbital elements:
2022 MP1                                                 Earth MOID = 0.0258 AU
Epoch 2022 Aug. 9.0 TT = JDT 2459800.5                  Veres                   
M  78.67816              (2000.0)            P               Q                  
n   0.74323421     Peri.  101.09189     -0.92645688     +0.34099615             
a   1.2070324      Node    98.99752     -0.37628237     -0.84967419             
e   0.2697230      Incl.    9.28567     +0.00944570     -0.40221312             
P   1.33           H   25.36          G   0.15           U   7                  
Residuals in seconds of arc
220623 G96  0.3+  0.9-    220623 V06  0.0   0.0     220623 L01  0.4-  0.2+
220623 G96  0.2+  0.1+    220623 104  0.4-  0.1+    220623 L01  0.2-  0.0
220623 G96  0.3-  1.0+    220623 104  0.0   0.3-    220623 L01  0.4-  0.2-
220623 I52  0.3-  0.2+    220623 104  0.6-  0.3+    220623 L01  0.6-  0.2-
220623 I52  0.3-  0.1+    220623 G02  0.3-  0.0     220623 Z80  0.4+  0.4-
220623 I52  0.1+  0.1-    220623 G34  0.2+  0.2+    220623 Z80  0.1+  0.4+
220623 I52  0.2-  0.3+    220623 G02  0.1-  1.0-    220624 H21  0.1+  0.1-
220623 V06  0.8+  0.0     220623 G34  0.0   0.4-    220624 H21  0.0   0.1+
220623 V06  0.0   0.1+    220623 G02  1.0-  0.4+    220624 H21  0.1+  0.1-
220623 V06  0.2-  0.1+    220623 L01  0.8-  0.1-    220624 H21  0.1-  0.1+

Ephemeris:
2022 MP1                 a,e,i = 1.21, 0.27, 9                   q = 0.8815
Date    TT    R. A. (2000) Decl.     Delta      r    Elong.  Phase     V
2022 05 25    06 59 27.1 +62 09 29   0.1517  0.9244    50.8   121.9    26.1
...
2022 06 09    08 07 44.2 +72 33 26   0.07809 0.9730    55.5   120.7    24.7
...
2022 06 17    13 29 14.5 +78 51 14   0.04254 1.0036    72.1   105.6    22.4
...
2022 06 23    17 15 41.9 +39 49 57   0.02627 1.0280   115.7    63.0    19.8
2022 06 24    17 27 11.7 +29 00 20   0.02608 1.0322   126.6    52.2    19.4
2022 06 25    17 36 18.1 +18 20 45   0.02686 1.0364   137.3    41.7    19.2
...
2022 07 01    18 06 10.4 -21 46 23   0.04556 1.0619   172.4     7.3    19.3
...
2022 07 09    18 22 37.1 -37 38 01   0.08397 1.0966   161.5    17.1    21.1
...
2022 07 24    18 38 51.9 -44 34 15   0.1674  1.1622   148.7    27.0    23.0

M. P. C. Staff               (C) Copyright 2022 MPC           M.P.E.C. 2022-M63




More information about the Iaude mailing list